Location: Haram ta Haram Freeway
(35.0583°N, 51.4202°E)
Time: 02:49:24
(UTC+03:30)

IRIDIUM 33 DEB - Pass Details

Date: 05 December 2021
Orbit: 663 x 816 km, 86.4° (Epoch: 21 January)

Event Time Altitude Azimuth Distance (km) Brightness Sun altitude
Rises 18:02:34 0° 160° (SSE) 3,336 ? -14.1°
Reaches altitude 10° 18:05:06 10° 152° (SSE) 2,403 ? -14.6°
Maximum altitude 18:10:03 38° 86° (E) 1,227 ? -15.6°
Drops below altitude 10° 18:14:55 10° 20° (NNE) 2,364 ? -16.5°
Enters shadow 18:15:21 - 18° (NNE) 2,520 ? -16.6°
